Regional Weather Roundup
Issued by NWS

Home | Current Version | Previous Version | Text Only | Print | Product List | Glossary On
Versions: 1 2 3 4 5 6 7 8 9 10 11 12 13 14 15 16 17 18 19 20 21 22 23 24 25 26 27
000
ASUS44 KBMX 262010
RWRAL

ALABAMA REGIONAL WEATHER ROUNDUP
NATIONAL WEATHER SERVICE BIRMINGHAM AL
300 PM CDT WED APR 26 2017

NOTE: "FAIR" INDICATES FEW OR NO CLOUDS BELOW 12,000 FEET
WITH NO SIGNIFICANT WEATHER AND/OR OBSTRUCTIONS TO VISIBILITY.

THE REMARK "TC" DENOTES TEMPERATURE IN DEGREES CELSIUS.

ALZ001>011-014-016>018-020-262100-
NORTH ALABAMA

CITY           SKY/WX    TMP DP  RH WIND       PRES   REMARKS
MUSCLE SHOALS  SUNNY     81  57  43 S14       29.69F
HUNTSVILLE     MOSUNNY   82  60  47 S13G23    29.72F
DECATUR        MOSUNNY   78  63  59 S14       29.72F
HALEYVILLE     FAIR      78  59  51 S14       29.74F
GADSDEN        SUNNY     80  61  52 SE13G20   29.74F
$$

ALZ012-013-022-023-030>036-040>044-262100-
WEST CENTRAL ALABAMA

CITY           SKY/WX    TMP DP  RH WIND       PRES   REMARKS
TUSCALOOSA     MOSUNNY   81  60  48 S12G22    29.72F
$$

ALZ015-024>027-033>036-040>044-262100-
CENTRAL ALABAMA

CITY           SKY/WX    TMP DP  RH WIND       PRES   REMARKS
BIRMINGHAM     PTSUNNY   80  57  45 S14G21    29.75F
MONTGOMERY     SUNNY     84  57  39 SE9       29.75F
SHELBY CO ARPT SUNNY     82  61  48 S16G23    29.74F
MAXWELL AFB    SUNNY     83  59  43 S13G20    29.75F
GREENVILLE     FAIR      83  55  38 S10G18    29.75F
$$

ALZ019-021-028-029-037-038-045>048-262100-
EAST CENTRAL ALABAMA

CITY           SKY/WX    TMP DP  RH WIND       PRES   REMARKS
ANNISTON       MOSUNNY   80  59  48 S10       29.77F
ALEXANDER CITY CLOUDY    78  58  51 S10       29.78F
AUBURN         SUNNY     80  58  46 S9        29.80F
$$

ALZ051>064-262100-
SOUTHWEST ALABAMA

CITY           SKY/WX    TMP DP  RH WIND       PRES   REMARKS
MOBILE         PTSUNNY   80  63  55 SE14G21   29.75F
BROOKLEY FIELD PTSUNNY   77  65  66 SE13      29.77F
EVERGREEN      SUNNY     83  59  44 S16G24    29.76F
$$

ALZ049-050-065>069-262100-
SOUTHEAST ALABAMA

CITY           SKY/WX    TMP DP  RH WIND       PRES   REMARKS
DOTHAN         SUNNY     82  56  40 S12G17    29.82F
OZARK          SUNNY     83  56  39 S14       29.78F
TROY           SUNNY     82  58  43 S8        29.78F
EUFAULA        FAIR      84  58  40 SE10      29.77F
$$




USA.gov is the U.S. government's official web portal to all federal, state and local government web resources and services.